Wind_Speed
5 4 4 3 3 2 3 3 3 3 2 3 3 3 3 3 3 2 2 2 2 2 2 3 3 4 4 4 3 3 3 4 5 5 5 5 5 5 5 5 5 4 3 2 3 4 5 6 6
5 5 4 4 3 3 3 3 3 2 2 2 2 2 2 1 1 1 1 1 1 2 2 3 3 3 4 4 4 4 4 5 5 6 6 5 5 5 5 5 5 5 4 4 4 5 5 6 7
5 5 5 5 4 4 4 4 3 2 2 2 2 1 1 1 1 1 1 2 2 2 3 3 3 4 4 4 4 4 5 5 5 5 6 5 5 5 5 5 6 5 5 5 5 6 6 7 7
6 6 6 6 6 5 5 4 4 3 2 2 2 1 1 1 2 2 2 2 3 3 4 4 4 4 4 4 5 5 5 6 6 6 5 5 5 6 6 6 6 6 6 6 5 6 6 7 7
7 7 7 6 6 6 6 6 6 5 4 3 3 3 2 2 2 3 3 3 3 4 5 5 5 5 5 5 5 6 6 6 6 6 5 5 6 6 6 6 7 7 6 6 5 5 6 7 8
8 7 7 7 6 6 7 7 6 7 6 5 5 5 4 4 3 4 4 4 4 5 5 6 6 6 6 6 6 6 7 7 6 6 5 5 6 6 6 7 7 7 7 7 7 7 8 8 9
8 8 8 8 7 7 7 7 7 7 7 7 6 6 6 5 5 4 5 6 5 6 6 6 6 6 6 6 6 6 7 6 6 6 6 6 6 6 7 7 7 7 7 7 8 8 9 9 9
9 9 9 9 8 7 8 8 8 8 8 7 7 7 7 6 6 6 6 6 6 7 7 7 7 7 7 6 6 7 6 6 6 6 7 7 7 7 7 8 8 8 8 8 9 9 9 10 10
9 10 9 9 9 9 9 9 8 8 8 8 7 7 7 7 7 7 7 7 7 7 8 7 7 7 7 7 7 8 7 7 7 7 7 7 7 8 8 8 8 9 9 9 9 9 10 10 11
10 10 10 10 10 10 9 9 9 9 9 8 8 8 8 8 7 7 7 7 7 8 8 8 7 7 8 8 8 8 8 8 7 8 8 8 8 8 8 9 9 9 9 9 10 10 10 10 10
11 10 10 10 10 10 11 10 10 10 9 9 9 8 8 9 9 8 8 8 8 8 8 8 7 7 7 8 8 8 8 9 8 8 8 9 9 10 10 10 10 10 10 10 10 10 9 9 9
12 12 11 11 10 10 10 10 10 10 10 10 10 9 9 9 9 9 9 8 8 8 8 8 8 8 8 8 8 8 9 9 9 9 9 10 10 11 11 11 11 11 11 10 10 11 10 10 10
12 12 12 12 11 10 10 10 10 10 10 10 10 10 9 9 9 9 9 8 8 7 7 7 7 8 8 8 8 9 9 9 10 10 10 11 11 11 12 12 11 12 12 11 12 12 12 11 11
12 12 12 11 11 10 10 10 10 10 10 10 10 10 9 9 9 9 8 8 8 8 8 7 8 8 9 9 9 9 10 10 10 11 11 12 12 12 12 12 12 12 12 12 12 12 12 12 12
13 13 12 11 11 11 10 10 10 10 10 11 10 10 10 9 9 9 8 8 8 8 8 8 9 9 9 10 10 10 10 11 11 11 11 12 12 12 12 12 12 12 12 12 12 11 12 12 12
13 13 13 12 12 11 11 11 11 10 10 11 11 11 11 10 10 10 9 9 9 9 9 9 9 9 10 10 10 11 11 11 11 11 12 12 12 12 12 13 12 12 12 12 12 12 12 12 13
13 13 13 13 13 13 12 12 12 11 11 11 11 11 11 10 10 10 10 10 10 10 10 10 10 10 10 11 11 11 11 11 11 12 12 12 13 13 13 13 13 13 13 12 12 12 13 13 13
13 13 13 13 13 13 12 12 12 12 11 11 11 11 11 11 11 11 11 11 11 11 11 11 11 11 11 11 12 11 11 11 12 12 12 13 13 13 13 13 13 13 13 13 12 13 13 13 13
14 14 14 13 13 13 12 12 11 12 12 12 12 12 11 11 11 12 12 11 11 12 11 11 11 11 11 12 12 12 12 12 12 12 13 13 13 13 14 14 13 13 13 13 13 14 14 14 14
15 14 14 14 13 14 13 13 12 12 12 12 12 12 12 12 12 13 13 13 13 13 12 12 12 12 12 12 12 12 12 12 12 12 13 13 13 14 14 15 14 14 14 14 14 14 14 14 14
15 14 14 14 14 15 14 13 12 12 13 13 13 13 13 13 13 13 13 13 14 14 14 13 13 13 13 12 12 12 12 12 12 13 13 13 14 14 15 15 15 15 15 15 15 15 15 15 15
14 14 15 15 15 16 15 14 13 13 13 13 13 13 13 13 14 14 14 14 14 15 15 14 14 14 13 13 13 13 13 13 13 14 14 14 15 15 15 16 16 16 16 16 15 15 15 15 15
14 15 15 16 16 16 16 15 13 13 13 13 14 14 14 14 15 14 14 14 14 15 15 15 15 15 15 14 14 14 14 14 14 14 15 15 16 16 16 17 16 16 16 16 16 16 16 16 16
15 15 16 17 17 16 16 16 13 14 13 13 14 15 15 15 15 15 15 14 15 15 16 16 16 16 16 16 15 15 15 15 16 16 16 17 17 17 17 17 17 17 17 17 16 16 16 17 16
16 17 17 17 17 16 16 16 14 14 14 14 14 15 15 15 16 16 16 16 16 16 16 16 16 16 17 17 17 17 17 17 17 17 17 18 18 18 18 17 17 17 17 17 17 17 17 17 17
17 18 18 19 18 17 17 17 14 15 14 15 15 15 16 16 16 16 16 16 17 17 17 17 17 17 18 18 19 19 18 18 19 19 19 19 19 19 19 18 19 18 18 18 18 18 18 18 18
18 19 19 20 20 20 18 17 15 15 15 16 16 16 16 16 16 17 18 18 18 18 18 19 19 19 19 20 20 20 20 20 20 20 20 20 20 20 20 20 20 20 20 20 20 19 19 19 19
20 20 20 21 22 22 20 18 16 16 16 17 17 17 17 17 17 18 19 20 19 20 20 21 20 20 20 21 21 21 21 21 21 21 20 21 20 20 20 21 21 20 20 20 20 20 20 20 20
21 21 22 23 24 24 22 19 18 17 17 18 18 19 19 18 18 19 20 21 21 21 22 22 22 22 22 22 22 22 22 22 22 22 21 22 21 21 21 21 20 20 20 20 20 21 21 21 21
22 22 23 24 24 25 24 21 20 20 20 19 20 20 20 20 20 20 20 21 22 22 22 23 23 23 23 23 22 22 23 22 22 23 23 22 23 22 22 22 21 21 21 21 21 21 21 22 22
Wind_Direction
212 211 208 203 198 181 167 163 161 153 148 145 137 124 110 98 87 80 71 54 45 33 22 14 5 1 2 3 1 351 351 348 343 340 337 328 334 335 334 334 334 337 329 298 275 266 259 258 262
218 218 218 214 208 206 182 176 175 160 152 149 165 166 144 118 81 58 35 13 4 350 348 347 347 348 350 347 340 337 334 330 332 333 334 330 328 329 328 330 330 330 321 303 286 273 265 264 263
223 225 228 225 224 226 219 214 210 192 187 182 189 208 213 242 283 290 305 317 315 316 313 314 320 328 332 332 326 326 325 322 324 328 331 329 326 323 321 321 320 318 314 303 285 272 269 267 265
229 229 233 237 235 232 234 232 230 231 228 218 219 240 263 264 282 285 291 300 301 305 305 303 303 308 313 317 322 323 318 315 315 317 320 325 325 323 317 313 312 313 311 303 290 279 273 271 268
234 234 237 242 244 241 242 241 240 239 238 239 244 263 281 272 276 291 297 297 293 296 303 305 301 302 306 310 314 317 313 312 314 314 313 316 319 319 315 314 307 299 297 297 291 282 279 275 272
239 238 241 247 247 245 246 247 245 244 241 248 257 265 272 274 275 283 290 292 291 292 296 299 299 301 304 303 304 308 309 306 310 308 306 306 309 310 309 309 305 301 297 295 291 286 286 283 278
244 245 247 247 245 243 248 250 250 249 251 253 257 262 264 266 272 272 279 289 291 292 293 294 294 297 299 298 300 303 310 306 304 300 298 300 302 304 303 301 300 303 304 300 294 287 285 287 284
247 249 247 246 244 246 247 248 247 248 251 255 257 258 261 264 270 273 274 280 285 286 287 287 288 290 290 292 296 297 300 304 304 297 294 294 297 299 301 303 301 302 301 296 291 287 285 284 283
248 251 251 250 250 251 251 250 249 249 252 253 256 259 265 267 270 274 277 281 282 282 283 283 283 285 285 288 291 291 295 297 298 300 301 298 295 296 298 300 303 302 298 292 289 287 286 283 283
251 254 255 255 256 256 255 253 253 250 249 253 256 260 261 262 266 271 277 284 285 284 283 281 281 281 283 285 287 288 290 290 291 294 297 296 296 296 298 299 301 305 300 296 293 291 289 288 285
251 255 259 259 257 257 257 254 253 252 253 255 259 262 262 263 266 270 274 276 278 281 282 281 280 279 282 284 284 286 289 289 288 290 292 295 295 297 301 300 295 299 296 291 291 294 293 291 288
251 253 256 258 257 257 256 255 253 251 256 259 260 261 262 263 268 270 273 275 273 277 281 279 280 283 283 284 284 285 287 288 287 292 292 297 298 298 298 298 293 292 291 288 292 294 293 293 291
249 251 254 256 256 256 254 253 254 254 255 258 260 262 262 264 266 269 271 273 275 278 279 279 281 284 285 285 286 288 287 289 291 292 293 295 296 296 295 295 294 291 288 288 290 291 289 290 291
248 248 250 253 255 252 254 253 254 256 258 259 260 261 261 263 262 266 268 271 275 276 278 282 285 286 288 289 290 288 288 289 290 292 293 293 294 294 292 293 291 289 287 287 288 290 291 293 292
248 248 249 250 252 251 253 253 254 256 260 262 262 263 263 264 264 265 266 271 275 276 279 284 287 287 288 290 291 290 289 289 289 290 292 293 293 294 294 292 290 288 287 288 289 291 292 293 292
248 248 248 248 249 251 254 254 256 256 260 263 263 264 266 265 264 265 266 272 273 274 278 284 286 286 287 288 290 290 287 287 288 290 291 292 293 292 292 290 288 288 288 289 290 293 295 294 293
247 247 248 246 249 252 254 257 260 257 256 260 263 265 264 264 265 268 269 270 274 274 276 280 282 283 285 286 287 286 286 287 289 291 292 292 292 292 291 290 289 289 289 288 290 290 294 296 296
247 246 245 247 250 254 256 258 259 260 259 259 262 264 263 264 267 270 272 272 272 273 274 276 278 281 283 285 287 286 286 287 288 291 292 292 292 293 293 292 290 290 289 289 289 293 297 301 299
244 245 246 249 253 256 258 259 259 260 261 260 261 262 264 266 268 271 274 274 275 275 276 277 278 277 280 283 286 287 287 289 290 290 292 293 292 293 292 292 293 291 290 289 289 291 296 298 300
244 246 246 250 254 257 259 259 259 260 260 260 260 261 264 265 268 270 273 274 275 276 278 278 278 277 280 283 283 286 288 290 292 292 294 294 293 294 294 293 293 291 289 288 289 292 294 296 299
245 246 248 252 256 257 259 256 258 260 261 261 261 264 267 267 268 270 274 275 274 275 276 277 277 278 277 280 282 285 287 289 292 292 293 294 294 293 293 291 292 291 289 285 287 290 293 293 295
245 246 249 252 256 257 259 258 258 262 264 265 266 266 268 270 270 271 274 275 274 273 273 274 276 276 277 279 282 284 286 288 290 291 291 292 293 292 291 290 289 289 288 285 285 288 291 293 294
245 248 251 254 257 258 258 261 259 261 264 268 269 268 269 269 270 271 272 274 274 273 272 273 275 276 278 280 281 284 286 288 290 290 288 289 291 292 291 289 288 288 287 286 286 288 289 290 293
246 250 254 256 259 259 261 264 262 262 265 267 269 269 270 269 270 270 271 272 274 274 274 274 276 278 279 280 282 283 284 286 287 287 286 286 288 290 291 290 289 287 286 287 288 288 290 291 292
247 251 255 257 260 262 262 265 264 262 263 265 268 268 268 268 269 270 271 271 273 276 276 275 277 278 279 279 281 282 283 284 286 286 285 285 286 288 289 289 288 287 286 287 286 287 289 290 291
251 254 258 263 264 264 263 265 265 264 264 265 267 269 269 268 268 269 269 271 273 275 276 277 278 278 278 278 279 280 281 282 284 284 284 284 284 285 287 287 286 286 286 286 286 286 287 289 290
251 255 260 263 266 266 266 268 265 265 267 268 268 268 270 271 270 270 271 272 274 275 276 277 278 278 278 278 278 279 280 280 282 283 284 284 283 284 284 285 285 286 285 284 284 285 285 287 290
252 254 256 261 266 268 267 268 268 268 269 269 270 271 272 273 274 274 274 275 276 276 276 276 276 277 278 279 278 277 279 279 280 281 283 284 284 283 284 284 284 285 285 285 283 283 284 285 287
252 251 255 261 265 268 270 269 270 271 271 270 270 272 271 272 274 275 275 276 276 277 276 276 276 276 277 279 279 278 278 278 278 279 281 282 284 284 283 283 283 284 285 285 284 282 283 283 285
254 254 257 260 264 267 270 270 270 271 271 271 271 272 272 273 273 274 275 276 277 277 277 276 277 277 276 276 277 278 278 277 278 278 279 280 282 283 282 282 282 283 283 283 283 282 282 283 284
Height
5863 5863 5864 5866 5867 5866 5866 5867 5867 5868 5868 5869 5869 5869 5869 5870 5871 5873 5871 5870 5870 5870 5869 5869 5869 5868 5868 5867 5867 5867 5867 5867 5867 5867 5866 5866 5866 5865 5865 5864 5863 5861 5860 5860 5861 5863 5864 5864 5865
5862 5863 5865 5866 5866 5867 5867 5867 5868 5868 5869 5869 5869 5869 5869 5869 5870 5870 5870 5870 5870 5870 5870 5869 5869 5868 5868 5868 5867 5867 5867 5867 5866 5866 5866 5865 5865 5865 5864 5864 5863 5862 5862 5862 5862 5862 5863 5863 5864
5862 5863 5866 5866 5866 5867 5868 5868 5868 5868 5869 5869 5869 5869 5869 5869 5870 5870 5870 5870 5870 5870 5870 5869 5869 5868 5868 5868 5867 5867 5866 5866 5866 5866 5865 5865 5864 5864 5864 5863 5863 5863 5862 5862 5862 5862 5862 5862 5863
5863 5864 5865 5866 5866 5867 5867 5867 5868 5868 5869 5869 5869 5869 5869 5870 5869 5870 5870 5870 5870 5869 5869 5869 5868 5868 5867 5867 5867 5866 5866 5866 5865 5865 5865 5864 5864 5864 5863 5863 5862 5862 5862 5861 5861 5861 5861 5861 5861
5862 5864 5865 5865 5865 5866 5866 5867 5867 5868 5868 5869 5869 5869 5869 5869 5869 5869 5869 5869 5869 5869 5868 5868 5868 5867 5867 5866 5866 5866 5865 5865 5864 5864 5864 5864 5863 5863 5862 5862 5861 5861 5861 5860 5860 5860 5860 5860 5860
5862 5863 5864 5864 5865 5865 5865 5866 5867 5867 5868 5868 5868 5868 5868 5869 5868 5868 5868 5868 5868 5868 5867 5867 5867 5866 5866 5866 5865 5865 5864 5864 5863 5863 5863 5863 5862 5862 5861 5861 5859 5859 5859 5859 5859 5859 5858 5858 5858
5861 5862 5862 5863 5864 5864 5865 5865 5866 5866 5867 5867 5867 5867 5867 5868 5868 5868 5867 5868 5867 5867 5866 5866 5866 5865 5865 5864 5864 5864 5863 5863 5862 5862 5862 5861 5861 5861 5860 5860 5859 5858 5858 5858 5857 5857 5857 5857 5856
5859 5861 5861 5862 5862 5863 5864 5864 5865 5865 5865 5866 5866 5866 5866 5867 5866 5866 5866 5866 5866 5866 5865 5865 5865 5864 5864 5863 5863 5862 5862 5861 5861 5861 5860 5860 5860 5859 5859 5858 5858 5857 5857 5856 5856 5855 5855 5855 5854
5858 5860 5859 5860 5861 5862 5862 5863 5864 5864 5864 5865 5865 5865 5865 5865 5865 5865 5865 5865 5865 5864 5864 5864 5863 5863 5862 5862 5862 5861 5861 5860 5860 5859 5859 5859 5858 5858 5857 5857 5856 5856 5855 5855 5854 5853 5853 5853 5852
5856 5858 5858 5859 5860 5860 5861 5861 5862 5863 5863 5863 5864 5864 5864 5864 5863 5864 5864 5863 5863 5863 5862 5862 5862 5861 5861 5860 5860 5860 5859 5859 5858 5858 5858 5857 5857 5856 5856 5855 5854 5854 5853 5853 5852 5851 5851 5851 5850
5854 5856 5856 5857 5857 5858 5859 5860 5860 5861 5861 5862 5862 5862 5862 5862 5862 5862 5862 5862 5861 5861 5861 5860 5860 5860 5859 5859 5858 5858 5858 5857 5857 5856 5856 5855 5855 5854 5854 5853 5853 5852 5852 5851 5850 5849 5849 5849 5848
5853 5854 5854 5855 5855 5856 5857 5858 5858 5859 5860 5860 5860 5860 5860 5860 5860 5860 5860 5860 5860 5859 5859 5859 5858 5858 5857 5857 5857 5856 5856 5855 5855 5854 5854 5854 5853 5853 5852 5851 5850 5850 5850 5849 5848 5848 5847 5846 5846
5851 5851 5852 5853 5853 5854 5855 5856 5856 5857 5857 5857 5858 5858 5858 5858 5858 5858 5858 5858 5858 5858 5857 5857 5857 5856 5856 5855 5855 5854 5854 5854 5853 5853 5852 5852 5851 5851 5850 5849 5848 5848 5847 5847 5846 5845 5845 5844 5843
5848 5849 5850 5851 5851 5852 5853 5854 5855 5855 5855 5856 5856 5856 5856 5856 5856 5857 5856 5856 5856 5856 5856 5855 5855 5854 5854 5853 5853 5852 5852 5851 5851 5851 5850 5849 5849 5848 5848 5847 5846 5845 5845 5844 5844 5843 5842 5842 5841
5846 5847 5848 5849 5850 5850 5851 5852 5853 5853 5853 5854 5854 5854 5854 5854 5854 5854 5854 5854 5854 5854 5854 5853 5853 5852 5852 5851 5851 5850 5850 5849 5849 5848 5848 5847 5846 5846 5845 5844 5844 5843 5842 5842 5841 5840 5840 5839 5838
5844 5845 5846 5847 5847 5848 5851 5851 5850 5851 5851 5851 5852 5852 5852 5852 5852 5852 5852 5852 5852 5852 5851 5851 5851 5850 5850 5849 5849 5848 5847 5847 5846 5846 5845 5845 5844 5843 5842 5842 5841 5840 5840 5839 5838 5837 5837 5836 5835
5841 5842 5844 5845 5845 5846 5847 5848 5848 5848 5849 5849 5849 5849 5849 5850 5850 5850 5850 5850 5850 5849 5849 5849 5848 5848 5847 5847 5846 5846 5845 5844 5844 5843 5842 5842 5841 5840 5840 5839 5838 5837 5837 5836 5835 5834 5834 5833 5832
5839 5840 5841 5842 5843 5843 5844 5845 5846 5846 5846 5847 5847 5847 5847 5847 5847 5847 5847 5847 5847 5847 5847 5846 5846 5845 5845 5844 5844 5843 5842 5842 5841 5840 5840 5839 5838 5837 5837 5836 5835 5834 5833 5833 5832 5831 5830 5829 5828
5836 5837 5838 5840 5840 5841 5842 5842 5843 5843 5843 5844 5844 5844 5844 5845 5845 5844 5844 5844 5844 5844 5844 5843 5843 5842 5842 5841 5841 5840 5840 5839 5838 5838 5837 5836 5835 5835 5834 5833 5832 5831 5830 5830 5829 5828 5827 5826 5825
5833 5834 5836 5837 5837 5838 5839 5840 5840 5840 5841 5841 5841 5842 5842 5842 5842 5842 5841 5841 5841 5841 5841 5840 5840 5839 5839 5838 5838 5838 5837 5836 5835 5835 5834 5833 5832 5831 5830 5830 5829 5828 5827 5826 5826 5825 5824 5823 5822
5830 5832 5833 5834 5834 5835 5836 5837 5837 5837 5838 5838 5838 5839 5839 5839 5839 5839 5838 5838 5838 5837 5837 5837 5837 5836 5836 5835 5835 5834 5834 5833 5832 5832 5831 5830 5829 5828 5827 5826 5825 5824 5823 5823 5822 5821 5820 5819 5818
5828 5829 5830 5831 5831 5832 5833 5834 5835 5835 5835 5835 5835 5836 5836 5836 5836 5836 5835 5835 5834 5834 5834 5834 5833 5833 5833 5832 5832 5831 5831 5830 5829 5829 5828 5827 5826 5825 5823 5822 5822 5821 5820 5819 5818 5817 5816 5815 5814
5825 5826 5827 5827 5828 5829 5829 5830 5833 5832 5832 5832 5832 5832 5832 5832 5832 5832 5832 5831 5831 5830 5830 5830 5830 5830 5829 5829 5828 5828 5827 5827 5826 5825 5824 5823 5822 5821 5820 5818 5818 5817 5816 5815 5814 5813 5812 5811 5810
5822 5823 5823 5824 5824 5826 5827 5827 5829 5829 5829 5829 5829 5829 5829 5829 5829 5828 5828 5828 5827 5826 5826 5826 5826 5826 5825 5825 5824 5824 5823 5822 5822 5821 5820 5819 5818 5817 5815 5814 5813 5812 5811 5811 5810 5809 5808 5807 5806
5819 5820 5820 5820 5821 5823 5823 5823 5826 5826 5826 5826 5826 5826 5826 5825 5825 5825 5824 5824 5823 5823 5822 5822 5822 5822 5821 5821 5820 5820 5819 5818 5818 5817 5816 5815 5814 5812 5811 5810 5809 5808 5807 5806 5805 5804 5803 5803 5802
5815 5816 5818 5818 5818 5819 5819 5820 5823 5822 5822 5822 5822 5822 5822 5822 5821 5821 5820 5820 5819 5819 5818 5818 5818 5817 5817 5816 5816 5815 5814 5814 5813 5812 5811 5810 5809 5808 5807 5806 5805 5803 5802 5802 5801 5800 5799 5798 5797
5811 5812 5813 5814 5813 5814 5815 5817 5819 5818 5818 5818 5818 5818 5818 5817 5817 5817 5816 5816 5815 5815 5814 5813 5813 5812 5812 5811 5811 5810 5809 5809 5808 5807 5806 5805 5804 5803 5802 5801 5799 5798 5797 5797 5796 5795 5794 5793 5792
5807 5808 5808 5809 5809 5809 5811 5813 5814 5814 5814 5814 5814 5814 5813 5813 5813 5812 5811 5811 5810 5810 5809 5808 5808 5807 5807 5806 5805 5805 5804 5803 5802 5801 5800 5799 5798 5797 5796 5795 5794 5793 5792 5791 5790 5789 5788 5787 5786
5803 5803 5803 5804 5804 5805 5806 5810 5810 5810 5809 5809 5809 5809 5808 5808 5807 5807 5806 5806 5805 5804 5803 5803 5802 5802 5801 5800 5800 5799 5798 5797 5796 5796 5795 5794 5793 5791 5790 5789 5788 5787 5786 5785 5784 5783 5782 5781 5781
5797 5798 5799 5800 5800 5799 5800 5805 5804 5804 5804 5804 5804 5803 5803 5802 5802 5801 5801 5800 5799 5799 5798 5797 5796 5796 5795 5794 5794 5793 5792 5791 5790 5790 5789 5788 5787 5785 5784 5783 5782 5781 5780 5780 5779 5778 5776 5775 5774